| time (UTC) | temp F | wind direction | speed MPH | gust MPH | rain 1hr in | rain 24hr in | rain mn in | humidity % | barometer mb |
| 20260506094534 | 62 | 189 | 11.0 | 23.0 | 0.00 | 0.00 | 0.00 | 72 | 1013.8 |
| 20260506093034 | 60 | 193 | 7.0 | 22.0 | 0.00 | 0.00 | 0.00 | 73 | 1013.4 |
| 20260506091534 | 60 | 215 | 5.0 | 14.0 | 0.00 | 0.00 | 0.00 | 72 | 1013.2 |
| 20260506090031 | 59 | 198 | 5.0 | 13.0 | 0.00 | 0.00 | 0.00 | 71 | 1013.1 |
| 20260506084536 | 60 | 223 | 5.0 | 12.0 | 0.00 | 0.00 | 0.00 | 70 | 1013.0 |
| 20260506083032 | 60 | 251 | 7.0 | 15.0 | 0.00 | 0.00 | 0.00 | 69 | 1012.7 |
| 20260506081541 | 60 | 225 | 4.0 | 11.0 | 0.00 | 0.00 | 0.00 | 68 | 1012.7 |
| 20260506073036 | 59 | 190 | 5.0 | 17.0 | 0.00 | 0.00 | 0.00 | 70 | 1012.4 |
| 20260506071534 | 59 | 229 | 5.0 | 13.0 | 0.00 | 0.00 | 0.00 | 70 | 1012.3 |
| 20260506061538 | 60 | 206 | 9.0 | 21.0 | 0.00 | 0.00 | 0.00 | 67 | 1012.4 |
| 20260506044538 | 59 | 237 | 7.0 | 18.0 | 0.00 | 0.00 | 0.00 | 68 | 1012.4 |
| 20260506043033 | 60 | 230 | 5.0 | 16.0 | 0.00 | 0.00 | 0.00 | 67 | 1012.5 |
| 20260506041539 | 61 | 194 | 9.0 | 19.0 | 0.00 | 0.00 | 0.00 | 67 | 1012.5 |
| 20260506040035 | 61 | 245 | 9.0 | 19.0 | 0.00 | 0.00 | 0.00 | 66 | 1012.6 |
| 20260506034534 | 61 | 202 | 8.0 | 19.0 | 0.00 | 0.00 | 0.00 | 65 | 1012.5 |
| 20260506033034 | 62 | 234 | 9.0 | 20.0 | 0.00 | 0.00 | 0.00 | 64 | 1012.3 |
| 20260506031538 | 62 | 228 | 6.0 | 16.0 | 0.00 | 0.00 | 0.00 | 64 | 1012.1 |
| 20260506030032 | 61 | 221 | 5.0 | 14.0 | 0.00 | 0.00 | 0.00 | 64 | 1011.9 |
| 20260506024540 | 62 | 205 | 6.0 | 15.0 | 0.00 | 0.00 | 0.00 | 63 | 1012.1 |
| 20260506023032 | 62 | 206 | 5.0 | 17.0 | 0.00 | 0.00 | 0.00 | 61 | 1012.0 |
| 20260506021534 | 63 | 214 | 5.0 | 14.0 | 0.00 | 0.00 | 0.00 | 60 | 1012.0 |
| 20260506020031 | 63 | 228 | 8.0 | 18.0 | 0.00 | 0.00 | 0.00 | 60 | 1011.9 |
| 20260506014534 | 63 | 221 | 6.0 | 19.0 | 0.00 | 0.00 | 0.00 | 59 | 1012.0 |
| 20260506013034 | 63 | 198 | 9.0 | 23.0 | 0.00 | 0.00 | 0.00 | 57 | 1012.1 |
| 20260506011558 | 63 | 244 | 9.0 | 19.0 | 0.00 | 0.00 | 0.00 | 55 | 1012.0 |
| 20260506010036 | 63 | 227 | 6.0 | 21.0 | 0.00 | 0.00 | 0.00 | 53 | 1011.7 |
| 20260506004540 | 64 | 222 | 10.0 | 24.0 | 0.00 | 0.00 | 0.00 | 52 | 1011.5 |
| 20260506003034 | 63 | 229 | 7.0 | 21.0 | 0.00 | 0.00 | 0.00 | 50 | 1011.3 |
| 20260506001531 | 63 | 258 | 7.0 | 14.0 | 0.00 | 0.00 | 0.00 | 48 | 1011.0 |
| 20260506000051 | 64 | 200 | 8.0 | 13.0 | 0.00 | 0.00 | 0.00 | 47 | 1011.0 |
| 20260505234540 | 64 | 223 | 3.0 | 11.0 | 0.00 | 0.00 | 0.00 | 47 | 1010.8 |
| 20260505233035 | 65 | 245 | 4.0 | 12.0 | 0.00 | 0.00 | 0.00 | 46 | 1010.5 |
| 20260505231534 | 66 | 0 | 6.0 | 14.0 | 0.00 | 0.00 | 0.00 | 45 | 1010.3 |
| 20260505230051 | 66 | 190 | 9.0 | 19.0 | 0.00 | 0.00 | 0.00 | 45 | 1010.1 |
| 20260505224539 | 67 | 228 | 7.0 | 19.0 | 0.00 | 0.00 | 0.00 | 44 | 1010.1 |
| 20260505223031 | 67 | 225 | 9.0 | 21.0 | 0.00 | 0.00 | 0.00 | 44 | 1010.2 |
| 20260505221532 | 68 | 205 | 10.0 | 17.0 | 0.00 | 0.00 | 0.00 | 44 | 1010.2 |
| 20260505220039 | 69 | 217 | 10.0 | 23.0 | 0.00 | 0.00 | 0.00 | 43 | 1010.2 |
| 20260505214534 | 71 | 216 | 12.0 | 26.0 | 0.00 | 0.00 | 0.00 | 42 | 1010.0 |
| 20260505213034 | 71 | 180 | 14.0 | 29.0 | 0.00 | 0.00 | 0.00 | 44 | 1009.8 |
| 20260505211537 | 73 | 215 | 12.0 | 22.0 | 0.00 | 0.00 | 0.00 | 40 | 1009.8 |
| 20260505210035 | 75 | 216 | 7.0 | 16.0 | 0.00 | 0.00 | 0.00 | 37 | 1009.6 |
| 20260505204543 | 74 | 184 | 13.0 | 28.0 | 0.00 | 0.00 | 0.00 | 35 | 1009.7 |
| 20260505203037 | 75 | 232 | 10.0 | 26.0 | 0.00 | 0.00 | 0.00 | 38 | 1009.7 |
| 20260505201532 | 75 | 281 | 11.0 | 20.0 | 0.00 | 0.00 | 0.00 | 37 | 1009.7 |
| 20260505200032 | 75 | 192 | 7.0 | 28.0 | 0.00 | 0.00 | 0.00 | 37 | 1009.7 |
| 20260505194543 | 73 | 216 | 12.0 | 31.0 | 0.00 | 0.00 | 0.00 | 38 | 1009.7 |
| 20260505193037 | 74 | 215 | 7.0 | 23.0 | 0.00 | 0.00 | 0.00 | 40 | 1009.6 |
| 20260505191534 | 74 | 171 | 7.0 | 22.0 | 0.00 | 0.00 | 0.00 | 42 | 1009.6 |
| 20260505190038 | 73 | 186 | 10.0 | 25.0 | 0.00 | 0.00 | 0.00 | 41 | 1009.5 |
| 20260505184537 | 73 | 194 | 13.0 | 26.0 | 0.00 | 0.00 | 0.00 | 42 | 1009.5 |
| 20260505183034 | 74 | 184 | 10.0 | 30.0 | 0.00 | 0.00 | 0.00 | 40 | 1009.5 |
| 20260505181558 | 72 | 180 | 12.0 | 26.0 | 0.00 | 0.00 | 0.00 | 43 | 1009.4 |
| 20260505180045 | 73 | 192 | 10.0 | 20.0 | 0.00 | 0.00 | 0.00 | 42 | 1009.5 |
| 20260505174534 | 72 | 215 | 9.0 | 17.0 | 0.00 | 0.00 | 0.00 | 44 | 1009.5 |
| 20260505173034 | 71 | 201 | 11.0 | 20.0 | 0.00 | 0.00 | 0.00 | 44 | 1009.7 |
| 20260505171531 | 68 | 159 | 12.0 | 20.0 | 0.00 | 0.00 | 0.00 | 48 | 1009.7 |
| 20260505170033 | 64 | 105 | 4.0 | 11.0 | 0.00 | 0.00 | 0.00 | 54 | 1009.9 |
| 20260505164530 | 62 | 54 | 5.0 | 12.0 | 0.00 | 0.11 | 0.00 | 56 | 1010.0 |
| 20260505163031 | 68 | 105 | 6.0 | 13.0 | 0.00 | 0.11 | 0.00 | 48 | 1010.0 |
| 20260505161532 | 67 | 225 | 8.0 | 14.0 | 0.00 | 0.11 | 0.00 | 52 | 1010.0 |
| 20260505153032 | 65 | 180 | 7.0 | 15.0 | 0.00 | 0.29 | 0.00 | 55 | 1010.0 |
| 20260505151534 | 64 | 227 | 7.0 | 15.0 | 0.00 | 0.29 | 0.00 | 54 | 1010.3 |
| 20260505124542 | 56 | 259 | 8.0 | 22.0 | 0.00 | 0.59 | 0.00 | 56 | 1010.3 |
| 20260505123037 | 56 | 199 | 8.0 | 18.0 | 0.00 | 0.59 | 0.00 | 55 | 1010.0 |
| 20260505121604 | 56 | 185 | 9.0 | 18.0 | 0.00 | 0.59 | 0.00 | 55 | 1010.0 |
| 20260505120031 | 56 | 190 | 6.0 | 19.0 | 0.00 | 0.59 | 0.00 | 57 | 1009.5 |
| 20260505114535 | 55 | 279 | 7.0 | 17.0 | 0.00 | 0.60 | 0.00 | 59 | 1009.5 |
| 20260505113032 | 54 | 188 | 4.0 | 12.0 | 0.00 | 0.60 | 0.00 | 60 | 1009.2 |
| 20260505111539 | 53 | 288 | 3.0 | 10.0 | 0.00 | 0.60 | 0.00 | 64 | 1009.3 |
| 20260505101540 | 48 | 186 | 2.0 | 8.0 | 0.00 | 0.69 | 0.00 | 75 | 1008.8 |
| 20260505100038 | 47 | 151 | 5.0 | 11.0 | 0.00 | 0.69 | 0.00 | 77 | 1008.7 |